Regional Weather Roundup
Issued by NWS Goodland, KS

Home | Current Version | Previous Version | Text Only | Print | Product List | Glossary Off
Versions: 1 2 3 4 5 6 7 8 9 10 11 12 13 14 15 16 17 18 19 20 21 22 23 24 25 26 27 28 29 30 31 32 33 34 35 36 37 38 39 40 41 42 43 44 45 46 47 48 49 50

000
ASUS43 KGLD 220208
RWRGLD

GOODLAND FORECAST AREA HOURLY WEATHER ROUNDUP
NATIONAL WEATHER SERVICE GOODLAND KS
700 PM MST SUN JAN 21 2018

...OFFICIAL OBSERVATIONS...

CITY           SKY/WX    TMP DP  RH WIND       PRES   REMARKS
GOODLAND KS    FOG       28  26  92 N30G45    29.71S VSB 1   WCI  12
HILL CITY KS   CLOUDY    34  33  96 N10       29.62F
IMPERIAL NEB   FOG       28  28 100 N30G40    29.77S VSB 1   WCI  12
MCCOOK NEB     LGT SNOW  31  31 100 N24G35    29.68F VSB 1   WCI  17
AKRON CO       FOG       24  22  91 N28G41    29.87R VSB 3/4 WCI   7
BURLINGTON CO  FOG       27  25  92 N26G41    29.76S VSB 1/2 WCI  12
LIMON CO       SNOW      21  20  96 N33G47    29.84R VSB 1/2 WCI   2
$$

...UNOFFICIAL OBSERVATIONS...

CITY           SKY/WX    TMP DP  RH WIND       PRES   REMARKS
COLBY KS       LGT SNOW  32  32 100 N12       29.69F
NORTON KS      LGT SNOW  34  28  80 N13G18    29.61
SHARON SPRINGS   N/A     28  27  95 NW24G36     N/A  WCI  14
KIT CARSON CO    N/A     25  22  89 MISG        N/A
YUMA CO        LGT SNOW  27  23  86 NW21G33   29.83S VSB 1   WCI  13
$$



USA.gov is the U.S. government's official web portal to all federal, state and local government web resources and services.